Location: Silent Lake
(44.9206°N, 78.0708°W)
Time: 04:19:33
(UTC-04:00)

Timation 1 Rocket - Pass Details

Date: 19 April 2018
Orbit: 900 x 908 km, 70.0° (Epoch: 21 May)

Event Time Altitude Azimuth Distance (km) Brightness Sun altitude
Rises 20:46:56 0° 333° (NNW) 3,530 8.4 -8.1°
Reaches altitude 10° 20:49:26 10° 334° (NNW) 2,587 7.6 -8.5°
Maximum altitude 20:55:26 81° 62° (ENE) 919 4.4 -9.5°
Drops below altitude 10° 21:01:24 10° 150° (SSE) 2,576 6.2 -10.4°
Enters shadow 21:01:55 - 150° (SSE) 2,767 6.4 -10.5°
